• In Hungary
  • List of Countries
  • For 7 days
  • Water Temperature
  • Satellite Maps
  • Weather Map
  • News
  • Weather Widgets
  • user-avatar
    Login

    Hourly Weather Rakowek

    Today, 24 October, Wednesday

    Time Temperature Precipitation Wind Pressure Humidity
    00:00 +7°C° 0.9 mm 9 mps 729 mmHg 79%
    01:00 +7°C° 0.9 mm 9 mps 728 mmHg 79%
    02:00 +6°C° 0.3 mm 9 mps 728 mmHg 78%
    03:00 +6°C° 0.3 mm 9 mps 727 mmHg 77%
    04:00 +5°C° 0.3 mm 9 mps 727 mmHg 77%
    05:00 +5°C° 0.2 mm 9 mps 727 mmHg 75%
    06:00 +5°C° 0.2 mm 9 mps 728 mmHg 73%
    07:00 +3°C° 0.2 mm 10 mps 728 mmHg 71%
    08:00 +5°C° 0.2 mm 10 mps 729 mmHg 64%
    09:00 +5°C° 0.2 mm 10 mps 730 mmHg 58%
    10:00 +4°C° 0.2 mm 11 mps 731 mmHg 52%
    11:00 +4°C° 0 mm 11 mps 731 mmHg 49%
    12:00 +6°C° 0 mm 11 mps 731 mmHg 46%
    13:00 +6°C° 0 mm 11 mps 732 mmHg 43%
    14:00 +5°C° 0 mm 10 mps 732 mmHg 44%
    15:00 +5°C° 0 mm 9 mps 733 mmHg 46%
    16:00 +5°C° 0 mm 8 mps 734 mmHg 47%
    17:00 +4°C° 0 mm 8 mps 734 mmHg 50%
    18:00 +4°C° 0 mm 8 mps 735 mmHg 53%
    19:00 +3°C° 0 mm 7 mps 736 mmHg 55%
    20:00 +3°C° 0 mm 7 mps 736 mmHg 57%
    21:00 +3°C° 0 mm 7 mps 737 mmHg 59%
    22:00 +2°C° 0 mm 7 mps 737 mmHg 61%
    23:00 +2°C° 0 mm 7 mps 737 mmHg 63%

    Tomorrow, 25 October, Thursday

    Time Temperature Precipitation Wind Pressure Humidity
    00:00 +2°C° 0 mm 6 mps 738 mmHg 64%
    01:00 +2°C° 0 mm 6 mps 738 mmHg 66%
    02:00 +1°C° 0 mm 6 mps 738 mmHg 70%
    03:00 +1°C° 0 mm 5 mps 738 mmHg 74%
    04:00 +1°C° 0 mm 5 mps 738 mmHg 78%
    05:00 +1°C° 0 mm 5 mps 738 mmHg 78%
    06:00 +2°C° 0 mm 5 mps 737 mmHg 78%
    07:00 +2°C° 0 mm 5 mps 737 mmHg 78%
    08:00 +2°C° 0.6 mm 6 mps 736 mmHg 79%
    09:00 +3°C° 0.6 mm 6 mps 736 mmHg 81%
    10:00 +4°C° 0.6 mm 7 mps 735 mmHg 83%
    11:00 +5°C° 0.4 mm 7 mps 734 mmHg 82%
    12:00 +7°C° 0.4 mm 8 mps 734 mmHg 81%
    13:00 +10°C° 0.4 mm 9 mps 733 mmHg 80%
    14:00 +10°C° 0.2 mm 9 mps 733 mmHg 81%
    15:00 +8°C° 0.2 mm 9 mps 733 mmHg 82%
    16:00 +8°C° 0.2 mm 9 mps 733 mmHg 83%
    17:00 +9°C° 0.3 mm 8 mps 733 mmHg 82%
    18:00 +9°C° 0.3 mm 8 mps 734 mmHg 81%
    19:00 +9°C° 0.3 mm 8 mps 734 mmHg 80%
    20:00 +8°C° 0.1 mm 7 mps 734 mmHg 80%
    21:00 +7°C° 0.1 mm 6 mps 735 mmHg 79%
    22:00 +5°C° 0.1 mm 6 mps 735 mmHg 78%
    23:00 +5°C° 0 mm 6 mps 735 mmHg 79%

    Day after tomorrow, 26 October, Friday

    Time Temperature Precipitation Wind Pressure Humidity
    00:00 +5°C° 0 mm 5 mps 735 mmHg 80%
    01:00 +5°C° 0 mm 5 mps 736 mmHg 81%
    02:00 +5°C° 0 mm 5 mps 736 mmHg 82%
    03:00 +5°C° 0 mm 5 mps 736 mmHg 83%
    04:00 +4°C° 0 mm 4 mps 736 mmHg 84%
    05:00 +5°C° 0 mm 4 mps 736 mmHg 84%
    06:00 +5°C° 0 mm 4 mps 736 mmHg 84%
    07:00 +5°C° 0 mm 4 mps 736 mmHg 85%
    08:00 +6°C° 0 mm 4 mps 736 mmHg 79%
    09:00 +7°C° 0 mm 5 mps 736 mmHg 74%
    10:00 +8°C° 0 mm 5 mps 736 mmHg 69%
    11:00 +9°C° 0 mm 5 mps 736 mmHg 70%
    12:00 +9°C° 0 mm 5 mps 735 mmHg 71%
    13:00 +10°C° 0 mm 5 mps 735 mmHg 72%
    14:00 +11°C° 0 mm 4 mps 734 mmHg 73%
    15:00 +11°C° 0 mm 4 mps 734 mmHg 73%
    16:00 +11°C° 0 mm 4 mps 733 mmHg 74%
    17:00 +10°C° 0 mm 4 mps 733 mmHg 75%
    18:00 +10°C° 0 mm 4 mps 733 mmHg 77%
    19:00 +8°C° 0 mm 5 mps 732 mmHg 79%
    20:00 +8°C° 0 mm 5 mps 732 mmHg 79%
    21:00 +8°C° 0 mm 5 mps 732 mmHg 80%
    22:00 +8°C° 0 mm 5 mps 732 mmHg 80%
    23:00 +8°C° 0 mm 5 mps 732 mmHg 80%

    27 October, Saturday

    Time Temperature Precipitation Wind Pressure Humidity
    00:00 +8°C° 0 mm 5 mps 732 mmHg 79%
    01:00 +7°C° 0 mm 5 mps 732 mmHg 78%
    02:00 +7°C° 0 mm 6 mps 732 mmHg 77%
    03:00 +7°C° 0 mm 6 mps 733 mmHg 76%
    04:00 +7°C° 0 mm 6 mps 733 mmHg 75%
    05:00 +5°C° 0 mm 6 mps 733 mmHg 73%
    06:00 +5°C° 0 mm 6 mps 734 mmHg 71%
    07:00 +4°C° 0 mm 6 mps 734 mmHg 69%
    08:00 +5°C° 0 mm 6 mps 735 mmHg 67%
    09:00 +5°C° 0 mm 6 mps 735 mmHg 64%
    10:00 +6°C° 0 mm 5 mps 735 mmHg 62%
    11:00 +7°C° 0 mm 5 mps 736 mmHg 60%
    12:00 +7°C° 0 mm 5 mps 736 mmHg 58%
    13:00 +7°C° 0 mm 4 mps 736 mmHg 56%
    14:00 +7°C° 0 mm 4 mps 736 mmHg 57%
    15:00 +8°C° 0 mm 3 mps 737 mmHg 58%
    16:00 +8°C° 0 mm 2 mps 737 mmHg 60%
    17:00 +7°C° 0 mm 2 mps 737 mmHg 62%
    18:00 +7°C° 0 mm 2 mps 738 mmHg 64%
    19:00 +7°C° 0 mm 1 mps 738 mmHg 66%
    20:00 +7°C° 0 mm 1 mps 738 mmHg 67%
    21:00 +7°C° 0 mm 1 mps 739 mmHg 69%
    22:00 +7°C° 0 mm 1 mps 739 mmHg 70%
    23:00 +7°C° 0.1 mm 1 mps 739 mmHg 71%

    28 October, Sunday

    Time Temperature Precipitation Wind Pressure Humidity
    00:00 +7°C° 0.1 mm 1 mps 739 mmHg 73%
    01:00 +6°C° 0.1 mm 1 mps 739 mmHg 74%
    02:00 +5°C° 0.1 mm 2 mps 739 mmHg 76%
    03:00 +5°C° 0.1 mm 2 mps 739 mmHg 77%
    04:00 +5°C° 0.1 mm 2 mps 740 mmHg 79%
    05:00 +5°C° 0.2 mm 2 mps 740 mmHg 79%
    06:00 +4°C° 0.2 mm 3 mps 740 mmHg 80%
    07:00 +4°C° 0.2 mm 3 mps 740 mmHg 80%
    08:00 +4°C° 0.2 mm 4 mps 740 mmHg 78%
    09:00 +5°C° 0.2 mm 4 mps 740 mmHg 76%
    10:00 +5°C° 0.2 mm 5 mps 740 mmHg 73%
    11:00 +5°C° 0.4 mm 5 mps 740 mmHg 75%
    12:00 +4°C° 0.4 mm 6 mps 739 mmHg 77%
    13:00 +4°C° 0.4 mm 6 mps 739 mmHg 78%
    14:00 +3°C° 1 mm 6 mps 739 mmHg 81%
    15:00 +3°C° 1 mm 6 mps 739 mmHg 83%
    16:00 +3°C° 1 mm 7 mps 739 mmHg 86%
    17:00 +3°C° 1.3 mm 6 mps 738 mmHg 87%
    18:00 +3°C° 1.3 mm 6 mps 738 mmHg 88%
    19:00 +3°C° 1.3 mm 6 mps 738 mmHg 89%
    20:00 +3°C° 1.1 mm 6 mps 738 mmHg 90%
    21:00 +3°C° 1.1 mm 6 mps 737 mmHg 91%
    22:00 +3°C° 1.1 mm 6 mps 737 mmHg 91%
    23:00 +4°C° 0.5 mm 6 mps 736 mmHg 92%

    29 October, Monday

    Time Temperature Precipitation Wind Pressure Humidity
    00:00 +4°C° 0.5 mm 6 mps 736 mmHg 93%
    01:00 +4°C° 0.5 mm 6 mps 735 mmHg 93%
    02:00 +5°C° 0.5 mm 5 mps 735 mmHg 94%
    03:00 +6°C° 0.5 mm 5 mps 734 mmHg 94%
    04:00 +6°C° 0.5 mm 5 mps 734 mmHg 95%
    05:00 +6°C° 0.1 mm 5 mps 733 mmHg 94%
    06:00 +7°C° 0.1 mm 5 mps 733 mmHg 93%
    07:00 +7°C° 0.1 mm 4 mps 732 mmHg 92%
    08:00 +9°C° 0.2 mm 5 mps 732 mmHg 88%
    09:00 +10°C° 0.2 mm 5 mps 732 mmHg 84%
    10:00 +12°C° 0.2 mm 5 mps 732 mmHg 81%
    11:00 +12°C° 0.2 mm 4 mps 732 mmHg 82%
    12:00 +12°C° 0.2 mm 4 mps 731 mmHg 82%
    13:00 +12°C° 0.2 mm 4 mps 731 mmHg 83%
    14:00 +12°C° 0.5 mm 4 mps 731 mmHg 85%
    15:00 +12°C° 0.5 mm 4 mps 731 mmHg 88%
    16:00 +12°C° 0.5 mm 3 mps 731 mmHg 90%
    17:00 +12°C° 0.2 mm 3 mps 731 mmHg 90%
    18:00 +11°C° 0.2 mm 3 mps 731 mmHg 91%
    19:00 +11°C° 0.2 mm 3 mps 731 mmHg 92%
    20:00 +12°C° 0 mm 2 mps 731 mmHg 91%
    21:00 +12°C° 0 mm 2 mps 732 mmHg 91%
    22:00 +12°C° 0 mm 2 mps 732 mmHg 91%
    23:00 +12°C° 0 mm 2 mps 732 mmHg 91%

    30 October, Tuesday

    Time Temperature Precipitation Wind Pressure Humidity
    00:00 +11°C° 0 mm 3 mps 732 mmHg 91%
    01:00 +11°C° 0 mm 3 mps 732 mmHg 91%
    02:00 +11°C° 0 mm 3 mps 732 mmHg 91%
    03:00 +11°C° 0 mm 3 mps 731 mmHg 91%
    04:00 +11°C° 0 mm 4 mps 731 mmHg 91%
    05:00 +11°C° 0 mm 4 mps 731 mmHg 90%
    06:00 +11°C° 0 mm 4 mps 731 mmHg 89%
    07:00 +10°C° 0 mm 5 mps 731 mmHg 89%
    08:00 +13°C° 0 mm 5 mps 731 mmHg 84%
    09:00 +14°C° 0 mm 6 mps 732 mmHg 79%
    10:00 +15°C° 0 mm 6 mps 732 mmHg 74%
    11:00 +15°C° 0 mm 6 mps 732 mmHg 74%
    12:00 +15°C° 0 mm 5 mps 732 mmHg 74%
    13:00 +16°C° 0 mm 5 mps 731 mmHg 74%
    14:00 +15°C° 0.9 mm 4 mps 731 mmHg 80%
    15:00 +14°C° 0.9 mm 3 mps 731 mmHg 86%
    16:00 +14°C° 0.9 mm 2 mps 731 mmHg 92%
    17:00 +14°C° 0.7 mm 2 mps 731 mmHg 93%
    18:00 +14°C° 0.7 mm 2 mps 731 mmHg 94%
    19:00 +14°C° 0.7 mm 2 mps 731 mmHg 95%
    20:00 +13°C° 1.5 mm 2 mps 731 mmHg 96%
    21:00 +13°C° 1.5 mm 2 mps 731 mmHg 96%
    22:00 +13°C° 1.5 mm 2 mps 731 mmHg 96%
    23:00 +12°C° 1.5 mm 3 mps 731 mmHg 95%
    Show more